This is the latest recevied weather packets stored in our database for station/object SP9EPI-13. If no packets are shown the sender has not sent any weather packets the latest 10 day(s).
| Time | Temp. | Humidity | Pressure | Rain* | Wind** | Luminosity | Snow |
|---|---|---|---|---|---|---|---|
| 1777625400 | 15° C | 45% | 1022.6 hPa | - | - | - | - |
| 1777624800 | 16.11° C | 44% | 1022.6 hPa | - | - | - | - |
| 1777624200 | 15° C | 43% | 1022.6 hPa | - | - | - | - |
| 1777623600 | 13.89° C | 46% | 1022.6 hPa | - | - | - | - |
| 1777623000 | 13.89° C | 47% | 1022.6 hPa | - | - | - | - |
| 1777622400 | 12.78° C | 47% | 1022.6 hPa | - | - | - | - |
| 1777621801 | 12.22° C | 47% | 1022.6 hPa | - | - | - | - |
| 1777621200 | 12.22° C | 49% | 1022.6 hPa | - | - | - | - |
| 1777620600 | 12.22° C | 47% | 1022.6 hPa | - | - | - | - |
| 1777620000 | 12.22° C | 46% | 1022.6 hPa | - | - | - | - |
| 1777619400 | 12.22° C | 48% | 1022.6 hPa | - | - | - | - |
| 1777618800 | 11.11° C | 48% | 1022.6 hPa | - | - | - | - |
| 1777618200 | 11.11° C | 48% | 1022.6 hPa | - | - | - | - |
| 1777617600 | 11.11° C | 51% | 1022.6 hPa | - | - | - | - |
| 1777617000 | 10° C | 49% | 1022.6 hPa | - | - | - | - |
| 1777616400 | 10° C | 49% | 1022.6 hPa | - | - | - | - |
| 1777615800 | 10° C | 49% | 1022.6 hPa | - | - | - | - |
| 1777615200 | 8.89° C | 51% | 1022.6 hPa | - | - | - | - |
| 1777614600 | 8.89° C | 54% | 1022.6 hPa | - | - | - | - |
| 1777614000 | 8.89° C | 54% | 1022.6 hPa | - | - | - | - |
| 1777613400 | 8.89° C | 55% | 1022.6 hPa | - | - | - | - |
| 1777612800 | 7.78° C | 54% | 1022.6 hPa | - | - | - | - |
| 1777612200 | 7.78° C | 62% | 1022.6 hPa | - | - | - | - |
| 1777611600 | 7.22° C | 65% | 1022.6 hPa | - | - | - | - |
| 1777611001 | 7.22° C | 72% | 1022.6 hPa | - | - | - | - |
* Rain since midnight (hover to see other rain measurements)
** Current wind speed in m/s (hover to see current wind gust speed)